{"data":{"norad_id":62667,"intl_designator":"2025-009BL","name":"FLOCK 4G-14","alt_names":[],"object_type":"PAYLOAD","status":"ACTIVE","operator":null,"country":"US","launch_date":"2025-01-14","launch_site_code":"AFWTR","launch_vehicle":null,"mission":null,"orbit_class":"UNKNOWN","rcs_meters":null,"size_class":null,"mass_kg":null,"dimensions":null,"purposes":["earth_obs"],"wikipedia_slug":null,"has_3d_model":false,"image_url":null,"decayed_at":null,"tle_current":{"epoch":"2026-05-25T04:22:07.207968Z","epoch_age_seconds":56499,"freshness":"FRESH","line1":"1 62667U 25009BL  26145.18202787  .00009913  00000+0  35773-3 0  9995","line2":"2 62667  97.4024 227.1160 0005286  55.5605 304.6133 15.28696533 75382","mean_motion":15.28696533,"eccentricity":0.0005286,"inclination_deg":97.4024,"raan_deg":227.116,"arg_perigee_deg":55.5605,"mean_anomaly_deg":304.6133,"bstar":0.00035773,"rev_number":7538,"period_min":94.197897942116,"perigee_km":476.08277286229,"apogee_km":483.33288641619,"semimajor_km":6857.8448296392,"source":"CELESTRAK","updated_at":"2026-05-25T13:38:13.342076Z"}}}